FENGYUN 1C DEB, 36206

Orbit data source: Space-Track

FENGYUN 1C DEB, 36206 is space debris in SSO originally from a launch on Mon, 10 May 1999 UTC launched from the Taiyaun Space Center, China (TSC). Fengyun 1C debris stems from the Chinese weather satellite Fengyun-1C, which was intentionally destroyed by a Chinese anti-satellite missile in 2007. This event dramatically increased the amount of space debris, with thousands of trackable fragments posing hazards to satellites and human spaceflight. The Fengyun 1C debris cloud has become a focal point in discussions about space sustainability and the need for international regulations to prevent the creation of new debris.

Loading next visibility...
Identifier
36206, 1999-025DUF
Orbit
SSO
Country
Flag of CNCN / PRC
Related business
Manufacturer
Unknown
Mission
Spacecraft
Bus & Motor
Unknown
Mass
Unknown
Launch date (UTC)
1999-05-10 (27 years ago)
Launch vehicle
Unknown
Launch site
Taiyaun Space Center, China (TSC)
Object type
Payload
Rocket body
Debris
Shape & HBR
Unknown shape, 0.1 m
Radar Cross Section
Small (<0.1 m²)

Expand to show TLE details & history
Last TLE update: 1 week ago

TLE from 1 week ago
0 FENGYUN 1C DEB
1 36206U 99025DUF 26200.32895836  .00000567  00000-0  27348-3 0  9991
2 36206  98.4627 219.8213 0031767 100.7038 259.7720 14.22140109675277
Epoch: 2026-07-19T07:53Z
TLE epoch observation values (Epoch: 2026-07-19T07:53:42.002Z)
Latitude
-0°
Longitude
164.26737°
Altitude
825.18 km
Speed
7.438 km/s
True Right ascension
14h 39m 17s
True Declination
0° 00' 00"
Sunlit
Object was in daylight at epoch
Visualization orbit readout
Latitude
Unknown
Longitude
Unknown
Altitude
Unknown
Speed
Unknown
Apparent Right ascension
Unknown
Apparent Declination
Unknown
Sunlit
N/A
Visualization observer readout
Local Sidereal Time
18:31:28
Azimuth
Unknown
Elevation
Unknown
Doppler factor
Unknown
Orbital elements
Apogee altitude
838.119 km
Perigee altitude
792.417 km
Semi-major axis
7,193.405 km
Eccentricity
0.00318
Inclination
98.4627°
RAAN
219.8213°
Arg. of periapsis
100.7038°
True anomaly
259.41402°
Mean anomaly
259.772°
Eccentric anomaly
259.59298°
Mean motion
3.55747 °/min
Orbital period
101.2 mins
BSTAR
0.00027348
Loading maneuver chart data...
Computing Atmospheric mass density...
Loading historical data...
Loading historical data...
Loading historical data...
Loading historical data...
Loading historical data...
Loading historical data...
Loading historical data...

Documentation

Showing up to 5 results
|